Home > Weather > Riffa > Past weeks

Flag for Bahrain Weather for the Past 2 Weeks in Riffa, Bahrain

Now
84 °F

Passing clouds.


Feels Like: 86 °F
Forecast: 82 / 98 °F
Wind: 3 mph from South

Location: Bahrain International Airport

Current Time: May 3, 2016 at 1:17:49 AM

Latest Report: May 3, 2016 at 12:00 AM


Visibility: N/A

Pressure: 29.74 "Hg

Humidity: 51%

Dew Point: 64 °F

Location of RiffaLocation

Historic Weather in Riffa — Graph

°F

Riffa Temperature Yesterday

Maximum temperature yesterday: 97 °F (at 1:00 PM)
Minimum temperature yesterday: 79 °F (at 4:00 AM)
Average temperature yesterday: 87 °F

High & Low Weather Summary for the Past Weeks

 TemperatureHumidityPressure
High102 °F (Apr 26, 1:00 PM)83% (Apr 22, 5:00 AM)30.01 "Hg (Apr 22, 5:00 AM)
Low73 °F (Apr 18, 6:00 AM)9% (Apr 26, 12:00 PM)29.68 "Hg (Apr 24, 4:00 AM)
Average84 °F45%29.82 "Hg
* Reported Apr 17 11:00 PM — May 2 11:00 PM, Riffa, Weather by CustomWeather, © 2016

Note: Actual official high and low records may vary slightly from our data, if they occured in-between our weather recording intervals... More about our weather records

Advertising

Riffa Weather History for the Previous 24 Hours

Scroll right to see more
 ConditionsComfort  
Time TempWeatherWind HumidityBarometerVisibility
11:00 PM
Mon, May 2
84 °FPassing clouds.5 mph45%29.74 "HgN/A
10:00 PM84 °FClear.7 mph48%29.77 "Hg10 mi
9:00 PM82 °FClear.5 mph66%29.77 "Hg10 mi
8:00 PM82 °FClear.6 mph62%29.77 "Hg10 mi
7:00 PM84 °FClear.6 mph48%29.74 "Hg10 mi
6:00 PM86 °FSunny.6 mph43%29.74 "Hg10 mi
5:00 PM91 °FPassing clouds.7 mph21%29.74 "HgN/A
4:00 PM95 °FSunny.8 mph16%29.74 "Hg10 mi
3:00 PM97 °FSunny.9 mph13%29.74 "Hg10 mi
2:00 PM97 °FSunny.8 mph13%29.77 "Hg10 mi
1:00 PM97 °FSunny.9 mph13%29.77 "Hg10 mi
12:00 PM95 °FSunny.10 mph14%29.80 "Hg10 mi
11:00 AM95 °FSunny.10 mph15%29.83 "Hg10 mi
10:00 AM93 °FPassing clouds.9 mph16%29.83 "HgN/A
9:00 AM90 °FPassing clouds.7 mph21%29.83 "HgN/A
8:00 AM86 °FPassing clouds.6 mph31%29.83 "HgN/A
7:00 AM82 °FPassing clouds.8 mph42%29.83 "HgN/A
6:00 AM79 °FPassing clouds.9 mph54%29.80 "HgN/A
5:00 AM79 °FPassing clouds.7 mph54%29.80 "HgN/A
4:00 AM79 °FClear.7 mph58%29.77 "Hg10 mi
3:00 AM81 °FPassing clouds.6 mph51%29.77 "HgN/A
2:00 AM81 °FPassing clouds.5 mph42%29.77 "HgN/A
1:00 AM81 °FPassing clouds.7 mph48%29.80 "HgN/A
Weather by CustomWeather, © 2016

See weather overviewHow to use our weather pages